FW2547 Weather Reports


Display with metric or nautical units.
time (UTC)temp
F
wind
direction
speed
MPH
gust
MPH
rain 1hr
in
rain 24hr
in
rain mn
in
humidity
%
barometer
mb
20260510153054 81 42 19.0 25.0 0.00 0.00 0.00 17 1008.3
20260510151550 81 59 16.0 25.0 0.00 0.00 0.00 16 1008.1
20260510150044 80 28 14.0 22.0 0.00 0.00 0.00 16 1008.2
20260510144540 79 54 17.0 22.0 0.00 0.00 0.00 17 1008.0
20260510143037 78 83 7.0 11.0 0.00 0.00 0.00 18 1007.8
20260510141531 76 207 2.0 4.0 0.00 0.00 0.00 19 1007.8
20260510140026 75 279 0.0 4.0 0.00 0.00 0.00 19 1007.6
20260510134522 74 281 3.0 4.0 0.00 0.00 0.00 19 1007.2
20260510133033 74 304 0.0 3.0 0.00 0.00 0.00 19 1007.1
20260510131514 73 304 0.0 1.0 0.00 0.00 0.00 19 1006.9
20260510130010 73 304 1.0 5.0 0.00 0.00 0.00 19 1006.6
20260510124605 73 310 3.0 12.0 0.00 0.00 0.00 18 1006.1
20260510123003 72 272 7.0 11.0 0.00 0.00 0.00 18 1005.9
20260510121559 72 298 13.0 21.0 0.00 0.00 0.00 18 1005.5
20260510120057 73 284 14.0 20.0 0.00 0.00 0.00 18 1005.5
20260510114555 73 276 14.0 20.0 0.00 0.00 0.00 18 1005.4
20260510113051 74 299 14.0 18.0 0.00 0.00 0.00 17 1005.1
20260510111547 75 273 12.0 16.0 0.00 0.00 0.00 17 1005.0
20260510110045 75 271 10.0 15.0 0.00 0.00 0.00 17 1005.0
20260510104543 76 273 10.0 14.0 0.00 0.00 0.00 16 1004.9
20260510103044 76 263 9.0 13.0 0.00 0.00 0.00 16 1004.8
20260510101540 76 275 8.0 13.0 0.00 0.00 0.00 16 1004.7
20260510100039 76 299 8.0 14.0 0.00 0.00 0.00 16 1004.6
20260510094541 77 288 8.0 18.0 0.00 0.00 0.00 16 1004.4
20260510093038 76 275 9.0 12.0 0.00 0.00 0.00 16 1004.4
20260510091536 76 270 8.0 13.0 0.00 0.00 0.00 16 1004.4
20260510090035 76 294 9.0 13.0 0.00 0.00 0.00 16 1004.5
20260510084534 77 291 10.0 15.0 0.00 0.00 0.00 15 1004.6
20260510083032 76 290 9.0 13.0 0.00 0.00 0.00 15 1004.5
20260510081535 76 292 9.0 12.0 0.00 0.00 0.00 15 1004.5
20260510080026 77 302 9.0 12.0 0.00 0.00 0.00 14 1004.7
20260510074524 78 288 7.0 12.0 0.00 0.00 0.00 14 1004.9
20260510073027 79 294 8.0 11.0 0.00 0.00 0.00 13 1004.9
20260510071517 80 293 8.0 10.0 0.00 0.00 0.00 13 1005.1
20260510070013 81 319 6.0 10.0 0.00 0.00 0.00 12 1005.1
20260510064510 82 283 8.0 13.0 0.00 0.00 0.00 11 1005.0
20260510063008 82 339 8.0 13.0 0.00 0.00 0.00 11 1004.9
20260510061505 83 313 8.0 14.0 0.00 0.00 0.00 11 1005.0
20260510060006 83 311 10.0 14.0 0.00 0.00 0.00 10 1004.9
20260510054502 83 304 7.0 10.0 0.00 0.00 0.00 11 1004.9
20260510053001 82 304 7.0 9.0 0.00 0.00 0.00 11 1004.8
20260510051501 82 302 7.0 10.0 0.00 0.00 0.00 11 1004.8
20260510050100 82 300 7.0 10.0 0.00 0.00 0.00 11 1004.8
20260510044600 82 298 7.0 10.0 0.00 0.00 0.00 11 1004.8
20260510043109 83 293 8.0 10.0 0.00 0.00 0.00 11 1004.8
20260510041559 84 288 7.0 10.0 0.00 0.00 0.00 11 1004.6
20260510040110 84 303 6.0 10.0 0.00 0.00 0.00 11 1004.5
20260510034609 85 302 6.0 10.0 0.00 0.00 0.00 10 1004.4
20260510033058 85 291 9.0 15.0 0.00 0.00 0.00 10 1004.2
20260510031559 86 290 6.0 12.0 0.00 0.00 0.00 10 1004.0
20260510030055 88 304 9.0 14.0 0.00 0.00 0.00 10 1004.0
20260510024555 89 277 10.0 15.0 0.00 0.00 0.00 9 1003.7
20260510023055 89 262 8.0 15.0 0.00 0.00 0.00 9 1003.4
20260510021557 90 272 5.0 12.0 0.00 0.00 0.00 9 1003.1
20260510020053 90 248 4.0 10.0 0.00 0.00 0.00 9 1003.0
20260510014554 91 266 7.0 11.0 0.00 0.00 0.00 9 1002.8
20260510013052 92 275 3.0 9.0 0.00 0.00 0.00 9 1002.6
20260510011552 92 285 11.0 15.0 0.00 0.00 0.00 9 1002.5
20260510010050 92 239 5.0 12.0 0.00 0.00 0.00 8 1002.5
20260510004550 92 255 9.0 16.0 0.00 0.00 0.00 8 1002.6
20260510003049 93 259 6.0 11.0 0.00 0.00 0.00 7 1002.7
20260510001551 94 305 3.0 8.0 0.00 0.00 0.00 7 1002.7
20260510000046 93 257 1.0 11.0 0.00 0.00 0.00 7 1002.9
20260509234546 93 290 12.0 17.0 0.00 0.00 0.00 7 1003.2
20260509233048 93 244 5.0 10.0 0.00 0.00 0.00 7 1003.1
20260509231541 93 246 6.0 12.0 0.00 0.00 0.00 7 1003.3
20260509230040 93 276 9.0 16.0 0.00 0.00 0.00 7 1003.4
20260509224549 93 275 4.0 14.0 0.00 0.00 0.00 7 1003.7
20260509223038 92 250 4.0 16.0 0.00 0.00 0.00 7 1003.7
20260509221536 93 282 5.0 10.0 0.00 0.00 0.00 7 1003.9
20260509220034 92 36 4.0 9.0 0.00 0.00 0.00 7 1004.1
20260509214531 93 244 6.0 15.0 0.00 0.00 0.00 8 1004.5
20260509213028 93 279 4.0 10.0 0.00 0.00 0.00 8 1004.9
20260509211525 91 103 5.0 12.0 0.00 0.00 0.00 8 1005.1
20260509210030 92 317 9.0 16.0 0.00 0.00 0.00 8 1005.5
20260509204520 92 259 4.0 10.0 0.00 0.00 0.00 9 1005.7
20260509203019 91 211 1.0 6.0 0.00 0.00 0.00 10 1005.9
20260509201516 92 172 4.0 9.0 0.00 0.00 0.00 10 1006.2
20260509200014 91 186 4.0 7.0 0.00 0.00 0.00 11 1006.4
20260509194512 91 238 6.0 9.0 0.00 0.00 0.00 10 1006.6
20260509193013 90 285 5.0 8.0 0.00 0.00 0.00 11 1006.8
20260509191507 89 266 1.0 8.0 0.00 0.00 0.00 13 1007.0
20260509190004 88 238 5.0 9.0 0.00 0.00 0.00 14 1007.2
20260509184559 87 306 1.0 8.0 0.00 0.00 0.00 15 1007.3
20260509183057 86 69 2.0 6.0 0.00 0.00 0.00 15 1007.7
20260509181559 85 97 0.0 5.0 0.00 0.00 0.00 16 1008.1
20260509180055 84 238 1.0 7.0 0.00 0.00 0.00 17 1008.2
20260509174547 83 210 0.0 4.0 0.00 0.00 0.00 17 1008.4
20260509173042 82 323 1.0 5.0 0.00 0.00 0.00 18 1008.6
20260509171542 80 180 3.0 6.0 0.00 0.00 0.00 18 1008.7
20260509170035 79 297 2.0 4.0 0.00 0.00 0.00 19 1008.8
20260509164531 78 223 3.0 5.0 0.00 0.00 0.00 20 1008.8
20260509163027 77 189 1.0 5.0 0.00 0.00 0.00 22 1008.7
20260509161523 76 180 1.0 4.0 0.00 0.00 0.00 24 1008.6
20260509160018 74 59 2.0 4.0 0.00 0.00 0.00 25 1008.6
20260509154518 73 116 1.0 4.0 0.00 0.00 0.00 27 1008.5